CST,Max TemperatureF,Mean TemperatureF,Min TemperatureF,Max Dew PointF,MeanDew PointF,Min DewpointF,Max Humidity, Mean Humidity, Min Humidity, Max Sea Level PressureIn, Mean Sea Level PressureIn, Min Sea Level PressureIn, Max VisibilityMiles, Mean VisibilityMiles, Min VisibilityMiles, Max Wind SpeedMPH, Mean Wind SpeedMPH, Max Gust SpeedMPH,PrecipitationIn, CloudCover, Events, WindDirDegrees
2013-11-1,39,36,32,34,30,27,100,81,65,29.87,29.61,29.40,10,10,7,23,11,29,0.00,6,,316
2013-11-2,42,36,30,37,31,27,93,79,70,29.99,29.95,29.87,10,10,10,15,7,,0.00,4,,209
2013-11-3,44,40,37,37,34,32,93,75,61,29.99,29.88,29.75,10,10,10,24,11,32,0.00,4,,140
2013-11-4,44,38,32,37,31,21,81,70,60,29.87,29.71,29.65,10,10,10,23,18,31,0.00,7,Rain,200
2013-11-5,32,29,26,21,19,18,74,69,64,30.09,30.03,29.88,10,10,10,20,14,30,0.00,7,,246
2013-11-6,30,28,26,25,22,19,80,77,69,30.10,30.05,30.02,10,10,7,15,10,18,0.00,8,Snow,289
2013-11-7,33,30,28,27,23,18,86,74,56,30.14,30.10,30.05,10,10,10,14,10,16,0.00,6,,270
2013-11-8,37,32,26,32,28,21,93,85,70,30.04,29.85,29.62,10,8,2,18,10,20,0.08,5,Snow,142
2013-11-9,33,32,32,32,31,27,93,91,80,30.15,29.81,29.62,10,8,1,23,9,26,0.02,8,Rain-Snow,320
2013-11-10,32,24,15,27,20,9,86,79,59,30.27,30.13,30.02,10,9,1,29,17,36,0.00,7,Snow,277
2013-11-11,15,12,10,10,8,7,86,74,68,30.64,30.51,30.28,10,10,5,31,20,37,0.00,6,Snow,308
2013-11-12,32,21,10,21,14,5,85,71,60,30.63,30.40,30.06,10,10,10,23,14,30,0.00,0,,215
2013-11-13,44,36,28,30,27,19,86,70,57,30.05,29.75,29.65,10,10,10,20,13,28,0.00,0,,238
2013-11-14,33,32,30,34,29,27,100,86,75,29.78,29.72,29.65,10,8,2,12,6,,0.02,6,Rain-Snow,262
2013-11-15,37,32,28,36,30,27,100,88,75,29.69,29.57,29.39,10,10,7,18,10,20,0.03,2,Rain,192
2013-11-16,39,37,35,36,34,34,100,89,81,29.38,29.34,29.31,10,10,5,15,9,,0.00,5,Rain,129
2013-11-17,35,29,23,36,27,19,100,91,80,29.79,29.49,29.33,10,4,1,20,12,26,0.08,8,Rain-Snow,353
2013-11-18,23,21,19,19,17,16,93,88,80,30.18,30.05,29.79,10,10,7,18,11,17,0.00,8,,316
2013-11-19,35,28,21,30,23,19,93,81,69,30.16,29.86,29.55,10,10,10,28,15,30,0.05,4,,152
2013-11-20,33,27,21,32,25,18,93,86,74,30.12,29.87,29.57,10,8,1,21,11,29,0.00,6,Snow,340
2013-11-21,21,14,6,18,11,5,93,83,73,30.52,30.38,30.13,10,9,2,25,17,28,0.00,6,Snow,314
2013-11-22,14,11,8,10,5,1,92,79,67,30.68,30.45,30.31,10,7,0,23,15,26,0.00,7,Snow,296
2013-11-23,8,2,-5,3,-3,-8,92,80,61,30.80,30.71,30.51,10,9,2,20,13,21,0.00,3,,277
2013-11-24,30,18,5,27,14,0,86,79,68,30.50,29.93,29.57,10,8,2,32,18,25,0.00,6,Snow,195
2013-11-25,33,22,10,28,20,5,93,82,69,30.01,29.82,29.58,10,8,1,31,20,37,0.00,8,Snow,301
2013-11-26,17,12,8,10,7,1,86,77,67,30.38,30.25,30.00,10,9,2,30,18,37,0.00,6,Snow,336
2013-11-27,15,14,12,12,10,7,92,82,73,30.36,30.16,30.05,10,6,0,23,10,20,0.00,8,Snow,151
2013-11-28,15,8,1,12,7,-2,93,87,79,30.44,30.30,30.07,10,8,3,9,4,,0.00,5,Snow,312
2013-11-29,23,16,8,18,11,5,92,84,74,30.44,30.23,29.97,10,10,5,21,8,24,0.00,7,Snow,148
2013-11-30,24,22,19,21,19,19,100,86,80,30.17,30.07,29.95,10,9,3,14,8,,0.00,8,Snow,321